Date String (YYYY-MM-DD hh:mm:ss) UTC,Instrument flags,absolute air pressure of the measurement (hPa),sample flow rate (lpm),inlet stack bypass flow (lpm),air temperature of the measurement (°C),ambient temperature measured by the external sensor (°C),aerosol sample conditioner tube jacket temperature (°C),OPC LED temperature (°C),internal box temperature (°C),relative humidity of the measurement (%),span deviation,mass concentration of particles derived from Lorenz-Mie calculation of OPC scattering (μg/m³),mass concentration of particles derived from Lorenz-Mie calculation of OPC scattering (μg/m³),mass concentration of particles derived from Lorenz-Mie calculation of OPC scattering (μg/m³)
DateTimeUTC,F1_M11,P_M11,Q1_M11,Q2_M11,T1_M11,T2_M11,T3_M11,T4_M11,T5_M11,U1_M11,ZSPAN_M11,X0_M11,X2_M11,X1_M11
2024-01-04 04:00:00,SystemResetWarning,0826.9,5.00,000.00,023.2,022.1,000.0,031.6,024.5,10.3,0004.4,0013.87,0006.12,0005.35
2024-01-04 04:01:00,SystemResetWarning,0826.9,5.00,000.00,023.2,022.1,000.0,031.6,024.5,10.3,0004.4,0013.88,0006.08,0005.31
2024-01-04 04:02:00,SystemResetWarning,0826.9,4.99,000.00,023.2,022.1,000.0,031.6,024.5,10.3,0004.5,0013.71,0006.02,0005.27
2024-01-04 04:03:00,SystemResetWarning,0826.9,4.99,000.00,023.1,022.1,000.0,031.5,024.5,10.3,0004.4,0013.30,0005.98,0005.23
2024-01-04 04:04:00,SystemResetWarning,0826.9,5.00,000.00,023.1,022.1,000.0,031.5,024.4,10.3,0003.2,0012.05,0005.96,0005.18
2024-01-04 04:05:00,SystemResetWarning,0826.9,5.00,000.00,023.1,022.1,000.0,031.5,024.4,10.3,0003.4,0011.72,0005.90,0005.14
2024-01-04 04:06:00,SystemResetWarning,0826.9,5.00,000.00,023.1,022.1,000.0,031.5,024.4,10.3,0003.1,0013.11,0005.90,0005.11
2024-01-04 04:07:00,SystemResetWarning,0826.9,5.01,000.00,023.1,022.1,000.0,031.5,024.4,10.4,0003.4,0013.53,0005.85,0005.07
2024-01-04 04:08:00,SystemResetWarning,0826.9,5.00,000.00,023.1,022.1,000.0,031.5,024.4,10.4,0002.8,0013.78,0005.88,0005.06
2024-01-04 04:09:00,SystemResetWarning,0826.9,5.00,000.00,023.1,022.1,000.0,031.5,024.4,10.4,0002.7,0013.92,0005.83,0005.04
2024-01-04 04:10:00,SystemResetWarning,0826.9,5.00,000.00,023.1,022.1,000.0,031.5,024.4,10.4,0002.8,0013.03,0005.80,0005.00
2024-01-04 04:11:00,SystemResetWarning,0826.9,5.00,000.00,023.1,022.0,000.0,031.5,024.4,10.4,0002.8,0013.81,0005.77,0004.98
2024-01-04 04:12:00,SystemResetWarning,0826.9,5.00,000.00,023.1,022.0,000.0,031.5,024.4,10.4,0000.6,0014.53,0005.74,0004.96
2024-01-04 04:13:00,SystemResetWarning,0826.8,4.99,000.00,023.1,022.0,000.0,031.4,024.4,10.4,0001.8,0014.83,0005.72,0004.94
2024-01-04 04:14:00,SystemResetWarning,0826.8,5.00,000.00,023.0,022.0,000.0,031.4,024.3,10.4,0002.3,0015.26,0005.68,0004.91
2024-01-04 04:15:00,SystemResetWarning,0826.8,5.00,000.00,023.0,022.0,000.0,031.4,024.3,10.4,0002.1,0015.40,0005.67,0004.88
2024-01-04 04:16:00,SystemResetWarning,0826.9,5.00,000.00,023.0,022.0,000.0,031.4,024.3,10.4,0002.4,0016.14,0005.64,0004.86
2024-01-04 04:17:00,SystemResetWarning,0826.8,5.01,000.00,023.0,022.0,000.0,031.4,024.3,10.4,0003.5,0014.97,0005.58,0004.82
2024-01-04 04:18:00,SystemResetWarning,0826.8,5.01,000.00,023.0,022.0,000.0,031.4,024.3,10.5,0003.2,0014.53,0005.55,0004.81
2024-01-04 04:19:00,SystemResetWarning,0826.8,5.00,000.00,023.0,022.0,000.0,031.4,024.3,10.5,0002.4,0014.51,0005.51,0004.78
2024-01-04 04:20:00,SystemResetWarning,0826.8,5.00,000.00,023.0,022.0,000.0,031.4,024.3,10.5,0000.0,0014.74,0005.50,0004.77
2024-01-04 04:21:00,SystemResetWarning,0826.9,4.99,000.00,023.0,022.0,000.0,031.4,024.3,10.5,0000.0,0015.20,0005.48,0004.77
2024-01-04 04:22:00,SystemResetWarning,0826.8,4.99,000.00,023.0,022.0,000.0,031.4,024.3,10.5,0000.0,0014.11,0005.50,0004.79
2024-01-04 04:23:00,SystemResetWarning,0826.8,5.00,000.00,023.0,022.0,000.0,031.4,024.2,10.5,0000.0,0013.29,0005.50,0004.80
2024-01-04 04:24:00,SystemResetWarning,0826.8,5.00,000.00,023.0,022.0,000.0,031.3,024.3,10.5,0000.0,0013.19,0005.49,0004.81
2024-01-04 04:25:00,SystemResetWarning,0826.8,5.00,000.00,022.9,022.0,000.0,031.3,024.2,10.5,0000.0,0013.14,0005.49,0004.83
2024-01-04 04:26:00,SystemResetWarning,0826.7,5.00,000.00,022.9,022.0,000.0,031.3,024.2,10.5,0000.0,0013.87,0005.49,0004.84
2024-01-04 04:27:00,SystemResetWarning,0826.8,5.00,000.00,022.9,021.9,000.0,031.3,024.2,10.5,0000.0,0013.48,0005.52,0004.85
2024-01-04 04:28:00,SystemResetWarning,0826.8,5.00,000.00,022.9,021.9,000.0,031.3,024.2,10.5,0000.0,0013.23,0005.54,0004.88
2024-01-04 04:29:00,SystemResetWarning,0826.8,5.00,000.00,022.9,021.9,000.0,031.3,024.2,10.5,0000.0,0013.53,0005.59,0004.90
2024-01-04 04:30:00,SystemResetWarning,0826.8,5.00,000.00,022.9,021.9,000.0,031.3,024.2,10.5,0000.0,0013.49,0005.60,0004.92
2024-01-04 04:31:00,SystemResetWarning,0826.8,5.00,000.00,022.9,021.9,000.0,031.3,024.2,10.5,0000.0,0012.68,0005.59,0004.94
2024-01-04 04:32:00,SystemResetWarning,0826.8,5.01,000.00,022.9,021.9,000.0,031.3,024.2,10.5,0000.0,0012.12,0005.59,0004.93
2024-01-04 04:33:00,SystemResetWarning,0826.7,5.01,000.00,022.9,021.9,000.0,031.2,024.2,10.5,0000.0,0011.92,0005.57,0004.92
2024-01-04 04:34:00,SystemResetWarning,0826.6,5.00,000.00,022.9,021.8,000.0,031.2,024.2,10.5,0000.0,0011.99,0005.57,0004.91
2024-01-04 04:35:00,SystemResetWarning,0826.6,5.00,000.00,022.9,021.8,000.0,031.2,024.1,10.5,0000.0,0011.77,0005.56,0004.90
2024-01-04 04:36:00,SystemResetWarning,0826.6,5.00,000.00,022.8,021.8,000.0,031.2,024.1,10.6,0000.0,0012.25,0005.51,0004.83
2024-01-04 04:37:00,SystemResetWarning,0826.6,5.00,000.00,022.8,021.8,000.0,031.2,024.1,10.6,0000.0,0011.05,0005.43,0004.79
2024-01-04 04:38:00,SystemResetWarning,0826.5,4.99,000.00,022.8,021.8,000.0,031.2,024.1,10.6,0000.0,0010.21,0005.38,0004.77
2024-01-04 04:39:00,SystemResetWarning,0826.6,4.99,000.00,022.8,021.8,000.0,031.2,024.1,10.6,0000.8,0010.21,0005.35,0004.74
2024-01-04 04:40:00,SystemResetWarning,0826.7,5.00,000.00,022.8,021.8,000.0,031.2,024.1,10.6,0003.2,0010.42,0005.29,0004.71
2024-01-04 04:41:00,SystemResetWarning,0826.6,5.01,000.00,022.8,021.7,000.0,031.2,024.1,10.7,0002.8,0010.43,0005.22,0004.67
2024-01-04 04:42:00,SystemResetWarning,0826.6,5.01,000.00,022.8,021.7,000.0,031.2,024.0,10.7,0002.8,0010.55,0005.21,0004.66
2024-01-04 04:43:00,SystemResetWarning,0826.6,5.01,000.00,022.8,021.7,000.0,031.1,024.0,10.7,0000.0,0010.96,0005.18,0004.63
2024-01-04 04:44:00,SystemResetWarning,0826.6,4.99,000.00,022.8,021.7,000.0,031.1,024.0,10.7,0000.6,0010.96,0005.16,0004.60
2024-01-04 04:45:00,SystemResetWarning,0826.6,4.99,000.00,022.7,021.7,000.0,031.1,024.1,10.8,0003.6,0010.87,0005.14,0004.59
2024-01-04 04:46:00,SystemResetWarning,0826.6,5.00,000.00,022.7,021.7,000.0,031.1,024.0,10.8,0003.4,0011.15,0005.17,0004.60
2024-01-04 04:47:00,SystemResetWarning,0826.6,5.01,000.00,022.7,021.7,000.0,031.1,024.0,10.8,0003.2,0011.13,0005.22,0004.64
2024-01-04 04:48:00,SystemResetWarning,0826.5,5.00,000.00,022.7,021.7,000.0,031.1,024.0,10.9,0003.4,0011.34,0005.29,0004.66
2024-01-04 04:49:00,SystemResetWarning,0826.6,5.01,000.00,022.7,021.7,000.0,031.1,024.0,10.9,0003.5,0011.32,0005.28,0004.66
2024-01-04 04:50:00,SystemResetWarning,0826.5,4.99,000.00,022.7,021.7,000.0,031.1,024.0,10.9,0002.9,0011.20,0005.27,0004.67
2024-01-04 04:51:00,SystemResetWarning,0826.5,5.00,000.00,022.7,021.7,000.0,031.1,024.0,10.8,0002.5,0010.76,0005.29,0004.68
2024-01-04 04:52:00,SystemResetWarning,0826.5,5.00,000.00,022.7,021.7,000.0,031.1,024.0,10.8,0002.8,0010.55,0005.37,0004.71
2024-01-04 04:53:00,SystemResetWarning,0826.4,5.00,000.00,022.7,021.7,000.0,031.1,024.0,10.8,0002.7,0010.69,0005.39,0004.71
2024-01-04 04:54:00,SystemResetWarning,0826.4,5.00,000.00,022.7,021.7,000.0,031.1,024.0,10.8,0002.9,0010.49,0005.43,0004.73
2024-01-04 04:55:00,SystemResetWarning,0826.4,5.00,000.00,022.7,021.7,000.0,031.1,024.0,10.8,0003.6,0010.57,0005.50,0004.78
2024-01-04 04:56:00,SystemResetWarning,0826.4,5.00,000.00,022.7,021.7,000.0,031.1,024.0,10.8,0003.2,0011.14,0005.55,0004.82
2024-01-04 04:57:00,SystemResetWarning,0826.5,5.00,000.00,022.7,021.7,000.0,031.0,024.0,10.8,0000.5,0011.21,0005.55,0004.82
2024-01-04 04:58:00,SystemResetWarning,0826.5,5.00,000.00,022.7,021.7,000.0,031.0,024.0,10.8,0000.0,0010.62,0005.58,0004.82
2024-01-04 04:59:00,SystemResetWarning,0826.6,5.00,000.00,022.6,021.7,000.0,031.0,024.0,10.9,0000.0,0011.26,0005.59,0004.85
